Weather History for KSTJ - September, 2013

Change the Weather History Date:

Friday, September 6, 2013

  Actual Average Record
Temperature  
Mean Temperature 77 °F 70 °F  
Max Temperature 90 °F 83 °F 102 °F (1939)
Min Temperature 63 °F 58 °F 38 °F (1988)
Degree Days  
Heating Degree Days 0 1  
Month to date heating degree days 0 4  
Since 1 July heating degree days 2 9  
Cooling Degree Days 12 6  
Month to date cooling degree days 42 39  
Year to date cooling degree days 1112 1116  
Growing Degree Days 27 (Base 50)    
Moisture  
Dew Point 64 °F    
Average Humidity 66    
Maximum Humidity 87    
Minimum Humidity 44    
Precipitation  
Precipitation 0.00 in 0.14 in 3.30 in (1898)
Month to date precipitation 0.95 0.89  
Year to date precipitation 20.62 27.19  
Sea Level Pressure  
Sea Level Pressure 30.05 in    
Wind  
Wind Speed 6 mph (South)    
Max Wind Speed 14 mph    
Max Gust Speed 20 mph    
Visibility 10 miles    
Events      
T = Trace of Precipitation, MM = Missing Value Source: NWS Daily Summary

Daily Weather History Graph

Daily Weather History Graph

Search for Another Location

Airport or City:

Trip Planner

Search our weather history database for the weather conditions in past years. The results will help you decide how hot, cold, wet, or windy it might be!

Date:

Astronomy

Sep. 06, 2013 Rise Set
Actual Time 6:52 AM CDT 7:42 PM CDT
Civil Twilight 6:25 AM CDT 8:09 PM CDT
Nautical Twilight 5:52 AM CDT 8:42 PM CDT
Astronomical Twilight 5:18 AM CDT 9:15 PM CDT
Moon 8:05 AM CDT (9/6) 8:07 PM CDT (9/6)
Length of Visible Light 13h 44m
Length of Day
12h 49m
New Moon, 2% of the Moon is Illuminated
Sep 6
New Moon
Sep 12
First Quarter
Sep 19
Full
Sep 26
Last Quarter
Oct 4
New

Hourly Weather History & Observations

Time (CDT) Temp. Heat Index Dew Point Humidity Pressure Visibility Wind Dir Wind Speed Gust Speed Precip Events Conditions
12:53 AM 64.9 °F - 61.0 °F 87% 30.11 in 10.0 mi Calm Calm - N/A   Clear
1:53 AM 68.0 °F - 61.0 °F 78% 30.10 in 10.0 mi Calm Calm - N/A   Clear
2:53 AM 66.0 °F - 61.0 °F 84% 30.10 in 10.0 mi Calm Calm - N/A   Clear
3:53 AM 68.0 °F - 63.0 °F 84% 30.09 in 10.0 mi Calm Calm - N/A   Clear
4:53 AM 66.9 °F - 63.0 °F 87% 30.09 in 10.0 mi Calm Calm - N/A   Clear
5:53 AM 66.9 °F - 63.0 °F 87% 30.10 in 10.0 mi Calm Calm - N/A   Clear
6:53 AM 69.1 °F - 63.0 °F 81% 30.11 in 10.0 mi Calm Calm - N/A   Clear
7:53 AM 70.0 °F - 63.0 °F 78% 30.12 in 10.0 mi ESE 3.5 mph - N/A   Clear
8:53 AM 73.0 °F - 63.0 °F 71% 30.12 in 10.0 mi SSE 5.8 mph - N/A   Clear
9:53 AM 77.0 °F - 64.0 °F 64% 30.11 in 10.0 mi South 5.8 mph - N/A   Clear
10:53 AM 82.0 °F 83.1 °F 63.0 °F 52% 30.11 in 10.0 mi SSE 6.9 mph - N/A   Clear
11:53 AM 84.9 °F 86.1 °F 64.0 °F 49% 30.10 in 10.0 mi South 10.4 mph - N/A   Clear
12:53 PM 86.0 °F 87.6 °F 64.9 °F 49% 30.07 in 10.0 mi South 9.2 mph - N/A   Clear
1:53 PM 88.0 °F 89.6 °F 64.9 °F 46% 30.04 in 10.0 mi South 11.5 mph - N/A   Clear
2:53 PM 89.1 °F 91.0 °F 64.9 °F 45% 30.02 in 10.0 mi South 10.4 mph - N/A   Clear
3:53 PM 90.0 °F 91.7 °F 64.9 °F 43% 29.99 in 10.0 mi SSE 12.7 mph - N/A   Clear
4:53 PM 90.0 °F 92.4 °F 66.0 °F 45% 29.98 in 10.0 mi South 11.5 mph - N/A   Clear
5:53 PM 88.0 °F 90.3 °F 66.0 °F 48% 29.97 in 10.0 mi South 10.4 mph - N/A   Clear
6:53 PM 84.9 °F 87.1 °F 66.0 °F 53% 29.96 in 10.0 mi SSE 5.8 mph - N/A   Clear
7:53 PM 79.0 °F - 66.0 °F 64% 29.96 in 10.0 mi SSE 6.9 mph - N/A   Clear
8:53 PM 77.0 °F - 66.0 °F 69% 29.96 in 10.0 mi South 6.9 mph - N/A   Clear
9:53 PM 75.0 °F - 66.0 °F 73% 29.96 in 10.0 mi South 4.6 mph - N/A   Clear
10:53 PM 73.9 °F - 64.9 °F 73% 29.96 in 10.0 mi South 5.8 mph - N/A   Clear
11:53 PM 73.9 °F - 64.0 °F 71% 29.96 in 10.0 mi South 4.6 mph - N/A   Clear